Time,TemperatureF,DewpointF,PressureIn,WindDirection,WindDirectionDegrees,WindSpeedMPH,WindSpeedGustMPH,Humidity,HourlyPrecipIn,Conditions,Clouds,dailyrainin,SoftwareType,DateUTC
2013-07-21 00:03:00,64.9,22.0,29.73,East,89,0.0,0.0,19,0.00,,,0.00,weatherlink.com 1.10,2013-07-21 07:03:00,
2013-07-21 00:18:00,64.7,20.0,29.73,East,89,0.0,0.0,18,0.00,,,0.00,weatherlink.com 1.10,2013-07-21 07:18:00,
2013-07-21 00:33:00,64.4,20.0,29.73,East,89,0.0,0.0,18,0.00,,,0.00,weatherlink.com 1.10,2013-07-21 07:33:00,
2013-07-21 00:48:00,64.0,19.0,29.73,SSE,150,0.0,1.0,18,0.00,,,0.00,weatherlink.com 1.10,2013-07-21 07:48:00,
2013-07-21 01:03:00,63.3,19.0,29.73,SE,126,0.0,2.0,18,0.00,,,0.00,weatherlink.com 1.10,2013-07-21 08:03:00,
2013-07-21 01:18:00,62.5,20.0,29.72,SE,142,0.0,0.0,19,0.00,,,0.00,weatherlink.com 1.10,2013-07-21 08:18:00,
2013-07-21 01:33:00,62.8,20.0,29.72,SE,142,0.0,0.0,19,0.00,,,0.00,weatherlink.com 1.10,2013-07-21 08:33:00,
2013-07-21 01:48:00,63.1,20.0,29.72,SE,142,0.0,1.0,19,0.00,,,0.00,weatherlink.com 1.10,2013-07-21 08:48:00,
2013-07-21 02:03:00,62.7,18.0,29.71,East,100,0.0,2.0,18,0.00,,,0.00,weatherlink.com 1.10,2013-07-21 09:03:00,
2013-07-21 02:18:00,63.4,16.0,29.71,East,94,2.0,3.0,16,0.00,,,0.00,weatherlink.com 1.10,2013-07-21 09:18:00,
2013-07-21 02:34:00,64.6,11.0,29.71,East,79,0.0,3.0,12,0.00,,,0.00,weatherlink.com 1.10,2013-07-21 09:34:00,
2013-07-21 02:49:00,64.8,9.0,29.71,ENE,70,0.0,3.0,11,0.00,,,0.00,weatherlink.com 1.10,2013-07-21 09:49:00,
2013-07-21 03:04:00,64.4,9.0,29.71,ENE,77,0.0,4.0,11,0.00,,,0.00,weatherlink.com 1.10,2013-07-21 10:04:00,
2013-07-21 03:19:00,64.5,7.0,29.71,SE,127,1.0,4.0,10,0.00,,,0.00,weatherlink.com 1.10,2013-07-21 10:19:00,
2013-07-21 03:34:00,64.7,4.0,29.70,East,79,0.0,4.0,9,0.00,,,0.00,weatherlink.com 1.10,2013-07-21 10:34:00,
2013-07-21 03:49:00,64.9,4.0,29.70,East,92,2.0,4.0,9,0.00,,,0.00,weatherlink.com 1.10,2013-07-21 10:49:00,
2013-07-21 04:04:00,64.8,4.0,29.70,ESE,104,1.0,3.0,9,0.00,,,0.00,weatherlink.com 1.10,2013-07-21 11:04:00,
2013-07-21 04:19:00,64.1,4.0,29.70,ESE,111,2.0,3.0,9,0.00,,,0.00,weatherlink.com 1.10,2013-07-21 11:19:00,
2013-07-21 04:34:00,63.4,3.0,29.70,SE,129,1.0,2.0,9,0.00,,,0.00,weatherlink.com 1.10,2013-07-21 11:34:00,
2013-07-21 04:49:00,63.8,4.0,29.70,ESE,115,1.0,2.0,9,0.00,,,0.00,weatherlink.com 1.10,2013-07-21 11:49:00,
2013-07-21 05:04:00,63.9,4.0,29.70,ESE,111,1.0,2.0,9,0.00,,,0.00,weatherlink.com 1.10,2013-07-21 12:04:00,
2013-07-21 05:19:00,64.8,4.0,29.70,East,94,1.0,2.0,9,0.00,,,0.00,weatherlink.com 1.10,2013-07-21 12:19:00,
2013-07-21 05:34:00,64.8,7.0,29.71,ESE,118,2.0,2.0,10,0.00,,,0.00,weatherlink.com 1.10,2013-07-21 12:34:00,
2013-07-21 05:49:00,62.3,7.0,29.71,ESE,117,1.0,3.0,11,0.00,,,0.00,weatherlink.com 1.10,2013-07-21 12:49:00,
2013-07-21 06:04:00,62.6,7.0,29.70,ESE,109,0.0,3.0,11,0.00,,,0.00,weatherlink.com 1.10,2013-07-21 13:04:00,
2013-07-21 06:19:00,62.7,9.0,29.70,East,88,0.0,1.0,12,0.00,,,0.00,weatherlink.com 1.10,2013-07-21 13:19:00,
2013-07-21 06:34:00,62.1,12.0,29.70,ESE,103,2.0,4.0,14,0.00,,,0.00,weatherlink.com 1.10,2013-07-21 13:34:00,
2013-07-21 06:49:00,63.0,14.0,29.71,SE,131,1.0,2.0,15,0.00,,,0.00,weatherlink.com 1.10,2013-07-21 13:49:00,
2013-07-21 07:04:00,64.3,16.0,29.71,ESE,111,2.0,3.0,15,0.00,,,0.00,weatherlink.com 1.10,2013-07-21 14:04:00,
2013-07-21 07:19:00,65.3,16.0,29.71,SE,126,1.0,3.0,15,0.00,,,0.00,weatherlink.com 1.10,2013-07-21 14:19:00,
2013-07-21 07:34:00,67.1,18.0,29.71,SE,134,3.0,7.0,15,0.00,,,0.00,weatherlink.com 1.10,2013-07-21 14:34:00,
2013-07-21 07:49:00,68.9,18.0,29.71,SSE,160,3.0,5.0,14,0.00,,,0.00,weatherlink.com 1.10,2013-07-21 14:49:00,
2013-07-21 08:04:00,70.6,19.0,29.71,SSE,153,1.0,6.0,14,0.00,,,0.00,weatherlink.com 1.10,2013-07-21 15:04:00,
2013-07-21 08:19:00,71.2,16.0,29.71,SE,136,2.0,7.0,12,0.00,,,0.00,weatherlink.com 1.10,2013-07-21 15:19:00,
2013-07-21 08:34:00,72.0,17.0,29.71,South,179,4.0,7.0,12,0.00,,,0.00,weatherlink.com 1.10,2013-07-21 15:34:00,
2013-07-21 08:49:00,72.9,15.0,29.71,SE,139,2.0,6.0,11,0.00,,,0.00,weatherlink.com 1.10,2013-07-21 15:49:00,
2013-07-21 09:04:00,73.5,18.0,29.71,SSE,152,7.0,8.0,12,0.00,,,0.00,weatherlink.com 1.10,2013-07-21 16:04:00,
2013-07-21 09:19:00,74.2,18.0,29.71,SSE,148,4.0,9.0,12,0.00,,,0.00,weatherlink.com 1.10,2013-07-21 16:19:00,
2013-07-21 09:34:00,75.2,17.0,29.71,South,188,6.0,10.0,11,0.00,,,0.00,weatherlink.com 1.10,2013-07-21 16:34:00,
2013-07-21 09:49:00,76.0,18.0,29.70,SSE,167,2.0,6.0,11,0.00,,,0.00,weatherlink.com 1.10,2013-07-21 16:49:00,
2013-07-21 10:05:00,77.0,11.0,29.70,ESE,108,0.0,5.0,8,0.00,,,0.00,weatherlink.com 1.10,2013-07-21 17:05:00,
2013-07-21 10:20:00,77.7,9.0,29.70,South,169,1.0,7.0,7,0.00,,,0.00,weatherlink.com 1.10,2013-07-21 17:20:00,
2013-07-21 10:35:00,79.0,6.0,29.70,WNW,288,3.0,7.0,6,0.00,,,0.00,weatherlink.com 1.10,2013-07-21 17:35:00,
2013-07-21 10:50:00,79.6,7.0,29.71,NW,316,2.0,5.0,6,0.00,,,0.00,weatherlink.com 1.10,2013-07-21 17:50:00,
2013-07-21 11:05:00,80.0,7.0,29.71,SSW,193,1.0,3.0,6,0.00,,,0.00,weatherlink.com 1.10,2013-07-21 18:05:00,
2013-07-21 11:21:00,81.2,11.0,29.70,NNE,15,2.0,6.0,7,0.00,,,0.00,weatherlink.com 1.10,2013-07-21 18:21:00,
2013-07-21 11:35:00,81.6,12.0,29.70,SSW,213,3.0,6.0,7,0.00,,,0.00,weatherlink.com 1.10,2013-07-21 18:35:00,
2013-07-21 11:50:00,82.7,12.0,29.70,NNE,15,4.0,5.0,7,0.00,,,0.00,weatherlink.com 1.10,2013-07-21 18:50:00,
2013-07-21 12:05:00,82.4,5.0,29.70,ESE,121,0.0,7.0,5,0.00,,,0.00,weatherlink.com 1.10,2013-07-21 19:05:00,
2013-07-21 12:20:00,83.3,0.0,29.70,SE,143,0.0,8.0,4,0.00,,,0.00,weatherlink.com 1.10,2013-07-21 19:20:00,
2013-07-21 12:35:00,84.7,6.0,29.69,WNW,294,5.0,6.0,5,0.00,,,0.00,weatherlink.com 1.10,2013-07-21 19:35:00,
2013-07-21 12:50:00,85.0,2.0,29.69,NNE,12,2.0,5.0,4,0.00,,,0.00,weatherlink.com 1.10,2013-07-21 19:50:00,
2013-07-21 13:05:00,85.4,2.0,29.68,WNW,301,1.0,4.0,4,0.00,,,0.00,weatherlink.com 1.10,2013-07-21 20:05:00,
2013-07-21 13:20:00,86.1,7.0,29.68,West,269,1.0,6.0,5,0.00,,,0.00,weatherlink.com 1.10,2013-07-21 20:20:00,
2013-07-21 13:35:00,87.6,9.0,29.68,West,259,4.0,5.0,5,0.00,,,0.00,weatherlink.com 1.10,2013-07-21 20:35:00,
2013-07-21 13:50:00,87.8,13.0,29.68,North,6,1.0,8.0,6,0.00,,,0.00,weatherlink.com 1.10,2013-07-21 20:50:00,
2013-07-21 14:05:00,88.1,16.0,29.67,NNW,343,1.0,9.0,7,0.00,,,0.00,weatherlink.com 1.10,2013-07-21 21:05:00,
2013-07-21 14:20:00,87.5,19.0,29.67,WNW,301,3.0,7.0,8,0.00,,,0.00,weatherlink.com 1.10,2013-07-21 21:20:00,
2013-07-21 14:35:00,88.0,16.0,29.67,WNW,288,6.0,12.0,7,0.00,,,0.00,weatherlink.com 1.10,2013-07-21 21:35:00,
2013-07-21 14:51:00,88.3,9.0,29.67,SE,138,3.0,10.0,5,0.00,,,0.00,weatherlink.com 1.10,2013-07-21 21:51:00,
2013-07-21 15:06:00,89.2,14.0,29.67,West,278,2.0,10.0,6,0.00,,,0.00,weatherlink.com 1.10,2013-07-21 22:06:00,
2013-07-21 15:21:00,88.9,17.0,29.66,WNW,301,3.0,8.0,7,0.00,,,0.00,weatherlink.com 1.10,2013-07-21 22:21:00,
2013-07-21 15:36:00,88.8,17.0,29.66,West,264,2.0,6.0,7,0.00,,,0.00,weatherlink.com 1.10,2013-07-21 22:36:00,
2013-07-21 15:51:00,89.7,18.0,29.66,NW,305,7.0,10.0,7,0.00,,,0.00,weatherlink.com 1.10,2013-07-21 22:51:00,
2013-07-21 16:06:00,89.2,20.0,29.66,NNW,347,5.0,9.0,8,0.00,,,0.00,weatherlink.com 1.10,2013-07-21 23:06:00,
2013-07-21 16:21:00,89.7,21.0,29.65,NW,323,3.0,7.0,8,0.00,,,0.00,weatherlink.com 1.10,2013-07-21 23:21:00,
2013-07-21 16:36:00,89.9,21.0,29.66,WNW,296,6.0,14.0,8,0.00,,,0.00,weatherlink.com 1.10,2013-07-21 23:36:00,
2013-07-21 16:51:00,89.5,21.0,29.65,WNW,295,5.0,11.0,8,0.00,,,0.00,weatherlink.com 1.10,2013-07-21 23:51:00,
2013-07-21 17:06:00,89.5,23.0,29.66,NW,323,6.0,15.0,9,0.00,,,0.00,weatherlink.com 1.10,2013-07-22 00:06:00,
2013-07-21 17:21:00,88.6,28.0,29.65,NNW,330,4.0,14.0,11,0.00,,,0.00,weatherlink.com 1.10,2013-07-22 00:21:00,
2013-07-21 17:36:00,88.8,28.0,29.65,NW,318,6.0,11.0,11,0.00,,,0.00,weatherlink.com 1.10,2013-07-22 00:36:00,
2013-07-21 17:51:00,87.9,27.0,29.65,North,6,8.0,11.0,11,0.00,,,0.00,weatherlink.com 1.10,2013-07-22 00:51:00,
2013-07-21 18:07:00,87.5,27.0,29.65,NNW,340,6.0,9.0,11,0.00,,,0.00,weatherlink.com 1.10,2013-07-22 01:07:00,
2013-07-21 18:22:00,86.8,28.0,29.65,NNW,338,6.0,10.0,12,0.00,,,0.00,weatherlink.com 1.10,2013-07-22 01:22:00,
2013-07-21 18:37:00,86.1,32.0,29.65,North,4,9.0,16.0,14,0.00,,,0.00,weatherlink.com 1.10,2013-07-22 01:37:00,
2013-07-21 18:52:00,84.5,34.0,29.65,NNW,329,6.0,11.0,16,0.00,,,0.00,weatherlink.com 1.10,2013-07-22 01:52:00,
2013-07-21 19:07:00,83.6,34.0,29.65,NNW,333,6.0,12.0,17,0.00,,,0.00,weatherlink.com 1.10,2013-07-22 02:07:00,
2013-07-21 19:22:00,82.5,35.0,29.66,NNW,327,8.0,13.0,18,0.00,,,0.00,weatherlink.com 1.10,2013-07-22 02:22:00,
2013-07-21 19:37:00,81.4,34.0,29.66,NW,323,3.0,10.0,18,0.00,,,0.00,weatherlink.com 1.10,2013-07-22 02:37:00,
2013-07-21 19:52:00,80.2,36.0,29.67,North,360,7.0,11.0,20,0.00,,,0.00,weatherlink.com 1.10,2013-07-22 02:52:00,
2013-07-21 20:07:00,79.0,36.0,29.67,NW,326,5.0,10.0,21,0.00,,,0.00,weatherlink.com 1.10,2013-07-22 03:07:00,
2013-07-21 20:22:00,77.0,35.0,29.67,NNE,14,5.0,10.0,22,0.00,,,0.00,weatherlink.com 1.10,2013-07-22 03:22:00,
2013-07-21 20:37:00,74.6,34.0,29.68,NW,316,3.0,10.0,23,0.00,,,0.00,weatherlink.com 1.10,2013-07-22 03:37:00,
2013-07-21 20:52:00,72.5,34.0,29.68,NW,309,1.0,9.0,24,0.00,,,0.00,weatherlink.com 1.10,2013-07-22 03:52:00,
2013-07-21 21:07:00,71.3,35.0,29.69,North,9,3.0,9.0,26,0.00,,,0.00,weatherlink.com 1.10,2013-07-22 04:07:00,
2013-07-21 21:22:00,70.3,34.0,29.70,NNW,330,3.0,6.0,26,0.00,,,0.00,weatherlink.com 1.10,2013-07-22 04:22:00,
2013-07-21 21:38:00,69.5,33.0,29.70,NE,40,1.0,5.0,26,0.00,,,0.00,weatherlink.com 1.10,2013-07-22 04:38:00,
2013-07-21 21:53:00,68.7,34.0,29.71,NW,323,0.0,2.0,28,0.00,,,0.00,weatherlink.com 1.10,2013-07-22 04:53:00,
2013-07-21 22:08:00,68.4,33.0,29.71,WSW,257,3.0,6.0,27,0.00,,,0.00,weatherlink.com 1.10,2013-07-22 05:08:00,
2013-07-21 22:23:00,67.6,33.0,29.71,North,360,2.0,4.0,28,0.00,,,0.00,weatherlink.com 1.10,2013-07-22 05:23:00,
2013-07-21 22:38:00,67.6,33.0,29.71,NW,308,0.0,5.0,28,0.00,,,0.00,weatherlink.com 1.10,2013-07-22 05:38:00,
2013-07-21 22:53:00,67.4,34.0,29.71,North,351,1.0,5.0,29,0.00,,,0.00,weatherlink.com 1.10,2013-07-22 05:53:00,
2013-07-21 23:08:00,66.4,34.0,29.71,NNE,16,0.0,2.0,30,0.00,,,0.00,weatherlink.com 1.10,2013-07-22 06:08:00,
2013-07-21 23:23:00,65.4,34.0,29.71,NNW,348,0.0,2.0,31,0.00,,,0.00,weatherlink.com 1.10,2013-07-22 06:23:00,
2013-07-21 23:38:00,65.2,35.0,29.72,North,9,1.0,2.0,33,0.00,,,0.00,weatherlink.com 1.10,2013-07-22 06:38:00,
2013-07-21 23:53:00,65.2,35.0,29.71,North,358,0.0,3.0,33,0.00,,,0.00,weatherlink.com 1.10,2013-07-22 06:53:00,